2017-008W

Last updated on Wed Mar 01 2017 00:15:03 GMT+0000 (Coordinated Universal Time)

1 41968U 17008W 17059.75324294 .00001481 00000-0 69036-4 0 9994 2 41968 97.5089 121.3554 0008262 204.6196 155.4629 15.21443946 1962
UTC large
Height (km)
Speed (km/s)
/
Latitude / Longitude
Inclination (degrees)
Orbital Period (minutes)
Azimuth
Elevation
Range (km)
Doppler Factor

Next 0 passes for location: London (51.5072 / 0.1276)

Sorry there are no passes over London.